Weather History for Metropolis, IL

Change the Weather History Date:

Monday, March 25, 2013

  Actual Average (KPAH) Record (KPAH)
Temperature  
Mean Temperature 34 °F 51 °F  
Max Temperature 37 °F 62 °F 83 °F (2007)
Min Temperature 32 °F 40 °F 18 °F (1955)
Degree Days  
Heating Degree Days 30 14  
Month to date heating degree days 444  
Since 1 July heating degree days 3740  
Cooling Degree Days 0 0  
Month to date cooling degree days 0  
Year to date cooling degree days 0  
Moisture  
Dew Point 29 °F    
Average Humidity 82    
Maximum Humidity 99    
Minimum Humidity 70    
Precipitation  
Precipitation 0.00 in 0.14 in 2.98 in (2002)
Month to date precipitation 3.08  
Year to date precipitation 10.67  
Snow  
Snow 0.00 in 0.00 in 1.00 in (1979)
Month to date snowfall 0.6  
Since 1 July snowfall 9.1  
Snow Depth -    
Sea Level Pressure  
Sea Level Pressure 29.97 in    
Wind  
Wind Speed 14 mph (WNW)    
Max Wind Speed 20 mph    
Max Gust Speed 31 mph    
Visibility 9 miles    
Events Rain , Snow    
T = Trace of Precipitation, MM = Missing Value Source: NWS Daily Summary

Daily Weather History Graph

Daily Weather History Graph

Search for Another Location

Airport:

Trip Planner

Search our weather history database for the weather conditions in past years. The results will help you decide how hot, cold, wet, or windy it might be!

Date:

Astronomy

Mar. 25, 2013 Rise Set
Actual Time 6:50 AM CDT 7:11 PM CDT
Civil Twilight 6:24 AM CDT 7:37 PM CDT
Nautical Twilight 5:54 AM CDT 8:08 PM CDT
Astronomical Twilight 5:23 AM CDT 8:39 PM CDT
Moon 5:44 PM CDT (3/25) 5:32 AM CDT (3/25)
Length of Visible Light 13h 12m
Length of Day
12h 20m
Waxing Gibbous, 96% of the Moon is Illuminated
Mar 25
Waxing Gibbous
Mar 27
Full
Apr 2
Last Quarter
Apr 10
New
Apr 18
First Quarter

Hourly Weather History & Observations

Time (CDT) Temp. Windchill Dew Point Humidity Pressure Visibility Wind Dir Wind Speed Gust Speed Precip Events Conditions
12:15 AM 33.1 °F 22.6 °F 32.0 °F 96% 29.77 in 4.0 mi West 16.1 mph 28.8 mph N/A Snow Light Snow
12:35 AM 33.1 °F 23.4 °F 32.0 °F 96% 29.78 in 5.0 mi West 13.8 mph 25.3 mph N/A Snow Light Snow
12:55 AM 33.1 °F 23.4 °F 32.0 °F 96% 29.78 in 5.0 mi WNW 13.8 mph 26.5 mph N/A Snow Light Snow
1:15 AM 33.1 °F 22.6 °F 32.0 °F 96% 29.78 in 5.0 mi West 16.1 mph 26.5 mph N/A   Overcast
1:35 AM 33.1 °F 21.5 °F 31.8 °F 95% 29.79 in 7.0 mi West 19.6 mph 27.6 mph N/A   Overcast
1:55 AM 33.4 °F 22.7 °F 32.0 °F 94% 29.80 in 7.0 mi West 17.3 mph 27.6 mph N/A   Overcast
2:15 AM 33.4 °F 22.7 °F 31.1 °F 91% 29.80 in 10.0 mi West 17.3 mph 31.1 mph N/A   Overcast
2:35 AM 33.3 °F 22.1 °F 30.4 °F 89% 29.79 in 10.0 mi West 18.4 mph 25.3 mph N/A   Overcast
2:55 AM 33.1 °F 22.6 °F 29.8 °F 88% 29.80 in 10.0 mi West 16.1 mph 25.3 mph N/A   Overcast
3:35 AM 33.4 °F 22.7 °F 29.3 °F 85% 29.80 in 10.0 mi WNW 17.3 mph 23.0 mph N/A   Overcast
3:55 AM 33.4 °F 22.7 °F 28.9 °F 84% 29.81 in 10.0 mi West 17.3 mph 24.2 mph N/A   Overcast
4:15 AM 33.4 °F 22.7 °F 28.8 °F 83% 29.81 in 10.0 mi West 17.3 mph 21.9 mph N/A   Overcast
4:35 AM 33.8 °F 23.9 °F 28.4 °F 81% 29.81 in 10.0 mi West 15.0 mph 26.5 mph N/A   Overcast
4:55 AM 33.8 °F 24.3 °F 28.2 °F 80% 29.82 in 10.0 mi West 13.8 mph 23.0 mph N/A   Overcast
5:15 AM 33.6 °F 22.9 °F 27.7 °F 79% 29.83 in 10.0 mi WNW 17.3 mph 21.9 mph N/A   Overcast
5:35 AM 33.6 °F 23.3 °F 27.3 °F 78% 29.83 in 10.0 mi West 16.1 mph 23.0 mph N/A   Overcast
5:55 AM 33.6 °F 23.3 °F 27.5 °F 78% 29.83 in 10.0 mi WNW 16.1 mph 20.7 mph N/A   Overcast
6:15 AM 33.4 °F 23.1 °F 27.3 °F 78% 29.84 in 10.0 mi WNW 16.1 mph 20.7 mph N/A   Overcast
6:55 AM 33.3 °F 23.2 °F 27.3 °F 79% 29.86 in 10.0 mi West 15.0 mph 21.9 mph N/A   Overcast
7:15 AM 33.1 °F 24.4 °F 27.1 °F 79% 29.86 in 10.0 mi WNW 11.5 mph 19.6 mph N/A   Overcast
7:35 AM 33.1 °F 23.0 °F 27.0 °F 78% 29.87 in 10.0 mi West 15.0 mph 24.2 mph N/A   Overcast
7:55 AM 33.1 °F 23.0 °F 26.6 °F 77% 29.88 in 10.0 mi West 15.0 mph 24.2 mph N/A   Overcast
8:15 AM 33.1 °F 23.9 °F 26.6 °F 77% 29.89 in 10.0 mi WNW 12.7 mph 27.6 mph N/A   Overcast
8:35 AM 33.4 °F 23.5 °F 26.4 °F 75% 29.90 in 10.0 mi WNW 15.0 mph 26.5 mph N/A   Overcast
8:55 AM 33.4 °F 22.3 °F 26.6 °F 76% 29.91 in 10.0 mi West 18.4 mph 29.9 mph N/A   Overcast
9:15 AM 33.4 °F 22.0 °F 26.6 °F 76% 29.92 in 10.0 mi West 19.6 mph 25.3 mph N/A   Overcast
9:35 AM 33.8 °F 24.8 °F 26.8 °F 75% 29.93 in 10.0 mi West 12.7 mph 23.0 mph N/A   Overcast
9:55 AM 33.4 °F 22.7 °F 26.2 °F 75% 29.94 in 10.0 mi West 17.3 mph 26.5 mph N/A   Overcast
10:15 AM 33.4 °F 22.7 °F 26.4 °F 75% 29.94 in 10.0 mi WNW 17.3 mph 26.5 mph N/A   Overcast
10:35 AM 34.7 °F 24.3 °F 27.3 °F 74% 29.95 in 10.0 mi West 17.3 mph 24.2 mph N/A   Overcast
10:55 AM 34.0 °F 23.8 °F 26.4 °F 74% 29.96 in 10.0 mi West 16.1 mph 26.5 mph N/A   Overcast
11:15 AM 34.3 °F 24.6 °F 26.8 °F 74% 29.96 in 10.0 mi WNW 15.0 mph 29.9 mph N/A   Overcast
11:35 AM 34.3 °F 24.6 °F 26.4 °F 73% 29.97 in 10.0 mi West 15.0 mph 27.6 mph N/A   Overcast
11:55 AM 34.9 °F 25.7 °F 27.5 °F 74% 29.98 in 10.0 mi WNW 13.8 mph 23.0 mph N/A   Overcast
12:15 PM 34.9 °F 26.6 °F 27.0 °F 73% 29.98 in 10.0 mi WNW 11.5 mph 23.0 mph N/A   Overcast
12:35 PM 34.7 °F 25.5 °F 26.8 °F 73% 29.99 in 10.0 mi West 13.8 mph 21.9 mph N/A   Overcast
12:55 PM 34.7 °F 26.4 °F 26.8 °F 73% 29.99 in 10.0 mi West 11.5 mph 19.6 mph N/A   Overcast
1:15 PM 34.7 °F 25.5 °F 26.6 °F 72% 30.00 in 10.0 mi West 13.8 mph 18.4 mph N/A   Overcast
1:35 PM 35.8 °F 26.9 °F 28.0 °F 73% 30.00 in 10.0 mi West 13.8 mph 18.4 mph N/A Rain Light Rain
1:55 PM 35.6 °F 25.9 °F 27.7 °F 73% 30.00 in 10.0 mi WNW 16.1 mph 21.9 mph N/A   Overcast
2:15 PM 36.1 °F 27.7 °F 27.3 °F 70% 30.00 in 10.0 mi West 12.7 mph 19.6 mph N/A   Overcast
2:35 PM 36.0 °F 27.5 °F 28.8 °F 75% 30.01 in 7.0 mi West 12.7 mph 23.0 mph N/A Rain Light Rain
2:55 PM 35.8 °F 26.9 °F 29.5 °F 78% 30.02 in 7.0 mi West 13.8 mph 20.7 mph N/A Rain Rain
3:15 PM 34.5 °F 27.3 °F 31.3 °F 88% 30.02 in 1.2 mi West 9.2 mph - N/A Snow Light Snow
3:35 PM 34.7 °F 26.4 °F 31.3 °F 87% 30.03 in 2.5 mi West 11.5 mph 19.6 mph N/A Rain Heavy Rain
3:55 PM 35.8 °F 27.3 °F 32.0 °F 86% 30.03 in 10.0 mi West 12.7 mph 18.4 mph N/A Rain Light Rain
4:15 PM 36.3 °F 26.8 °F 29.8 °F 77% 30.03 in 10.0 mi West 16.1 mph 24.2 mph N/A Rain Rain
4:35 PM 36.3 °F 27.5 °F 30.0 °F 78% 30.04 in 10.0 mi WNW 13.8 mph 23.0 mph N/A Rain Light Rain
4:55 PM 36.7 °F 29.4 °F 31.3 °F 81% 30.04 in 10.0 mi West 10.4 mph 20.7 mph N/A Rain Light Rain
5:15 PM 37.4 °F 29.8 °F 29.3 °F 73% 30.05 in 10.0 mi West 11.5 mph 17.3 mph N/A   Overcast
5:35 PM 37.4 °F 30.8 °F 29.5 °F 73% 30.06 in 10.0 mi West 9.2 mph 19.6 mph N/A   Overcast
5:55 PM 36.1 °F 27.7 °F 30.2 °F 79% 30.06 in 10.0 mi WNW 12.7 mph 20.7 mph N/A Rain Light Rain
6:15 PM 36.5 °F 28.2 °F 30.0 °F 77% 30.08 in 10.0 mi WNW 12.7 mph 17.3 mph N/A   Overcast
6:35 PM 36.0 °F 30.3 °F 31.5 °F 84% 30.09 in 10.0 mi West 6.9 mph - N/A Rain Light Rain
6:55 PM 35.8 °F 28.3 °F 30.2 °F 80% 30.09 in 10.0 mi West 10.4 mph - N/A   Overcast
7:15 PM 34.3 °F 26.5 °F 30.9 °F 87% 30.10 in 10.0 mi West 10.4 mph - N/A   Mostly Cloudy
7:35 PM 34.0 °F 27.2 °F 30.9 °F 89% 30.11 in 10.0 mi WNW 8.1 mph - N/A   Mostly Cloudy
7:55 PM 34.9 °F 27.1 °F 30.7 °F 85% 30.11 in 10.0 mi West 10.4 mph - N/A   Overcast
8:15 PM 34.3 °F 27.0 °F 31.5 °F 89% 30.12 in 7.0 mi West 9.2 mph - N/A Snow Light Snow
8:35 PM 34.3 °F 29.2 °F 31.6 °F 90% 30.13 in 10.0 mi West 5.8 mph - N/A   Overcast
8:55 PM 34.0 °F 27.2 °F 31.8 °F 92% 30.13 in 5.0 mi West 8.1 mph - N/A Snow Light Snow
9:15 PM 34.0 °F 28.8 °F 32.0 °F 92% 30.13 in 10.0 mi West 5.8 mph - N/A   Overcast
9:35 PM 34.0 °F 31.0 °F 32.0 °F 92% 30.14 in 7.0 mi WNW 3.5 mph - N/A Snow Light Snow
9:55 PM 33.8 °F 29.6 °F 32.0 °F 93% 30.15 in 3.0 mi WNW 4.6 mph - N/A Snow Light Snow
10:15 PM 33.3 °F 26.4 °F 32.9 °F 99% 30.16 in 2.0 mi WNW 8.1 mph - N/A Snow Light Snow
10:35 PM 32.9 °F 25.9 °F 32.0 °F 96% 30.16 in 10.0 mi WNW 8.1 mph - N/A Snow Light Snow
10:55 PM 33.3 °F 25.1 °F 29.5 °F 86% 30.16 in 10.0 mi NW 10.4 mph 16.1 mph N/A   Overcast
11:15 PM 33.4 °F 25.9 °F 28.6 °F 82% 30.17 in 10.0 mi NW 9.2 mph - N/A Snow Light Snow
11:55 PM 32.9 °F 26.7 °F 29.3 °F 87% 30.17 in 5.0 mi WNW 6.9 mph - N/A Snow Light Snow